Wind_Speed
7 7 7 7 7 7 6 6 6 6 6 6 6 6 6 6 7 7 7 7 7 7 6 6 6 5 4 4 4 3 2 2 2 3 4 4 5 5 6 6 6 7 9 10 12 14 12 9 7 7 6 2 4 5 5 6 5 4 6 5 2 4 7 10 8 5 4 6 7 5 5 9 9 9 10 8 9 7 4 2 2 4 6 4 1 2 3 4
7 7 7 7 7 7 7 7 7 8 8 8 7 7 7 7 7 7 7 7 7 7 6 5 5 4 4 3 2 2 1 1 0 1 1 2 4 5 5 5 6 7 9 11 13 16 14 12 10 10 9 6 6 6 3 7 9 10 8 6 3 3 7 11 10 6 3 4 6 6 6 9 11 9 9 10 9 5 4 3 2 5 6 4 2 2 2 4
6 6 6 6 7 7 7 8 8 9 9 9 9 8 7 7 7 7 6 6 6 6 5 5 4 4 3 2 2 3 5 5 5 3 2 3 4 5 6 6 6 7 8 10 13 15 15 12 12 11 10 8 5 3 6 9 12 13 10 9 5 2 8 11 10 7 5 1 3 6 7 9 11 9 8 12 11 5 4 5 5 6 6 4 3 1 1 3
6 6 6 6 6 7 7 8 9 10 11 11 10 8 7 6 6 6 6 5 5 5 4 4 3 3 2 2 3 6 8 8 7 5 3 4 5 5 5 7 6 7 7 8 11 14 13 9 11 11 9 6 3 3 7 8 11 14 13 13 8 4 7 11 10 7 6 6 2 4 8 8 11 11 9 13 12 8 6 5 5 4 4 3 3 2 1 2
6 6 6 6 6 7 7 8 9 10 11 11 10 9 7 6 6 6 5 5 4 4 4 3 3 2 2 2 3 5 6 6 5 3 5 6 7 7 7 7 7 7 7 8 11 13 11 7 10 10 5 3 5 4 7 10 9 12 14 14 11 4 8 11 10 6 5 7 4 2 7 7 10 10 10 13 13 9 6 5 6 5 5 5 5 3 2 3
6 6 6 6 7 7 8 8 9 10 11 11 10 9 8 7 6 6 5 4 3 3 3 3 2 2 2 2 2 3 3 3 3 2 5 6 8 9 8 8 8 9 8 10 13 13 11 10 12 7 2 5 9 9 14 14 7 13 14 13 9 3 9 11 9 6 4 5 5 1 4 5 7 8 8 11 12 11 8 6 8 7 7 7 6 4 3 4
5 6 6 7 7 7 8 8 9 10 11 11 10 9 8 7 6 6 5 3 3 3 3 3 2 2 2 3 4 5 4 2 4 2 4 5 6 8 9 9 8 10 10 12 15 16 14 13 11 6 4 5 9 11 16 11 8 15 13 10 4 5 9 10 7 4 3 4 5 3 3 5 6 7 6 9 11 12 11 9 9 9 8 8 8 6 4 4
6 6 6 7 8 8 8 8 9 10 11 11 10 9 8 7 6 5 5 3 3 3 3 3 3 2 2 4 7 7 4 4 5 3 4 5 6 7 8 9 9 10 11 12 16 18 16 14 9 4 3 4 7 7 10 5 7 9 6 6 2 6 9 9 5 2 3 3 4 3 4 5 5 6 7 9 11 12 13 12 11 10 10 11 9 7 5 6
6 6 6 7 8 8 8 8 9 10 10 11 10 9 8 7 6 5 4 3 3 3 3 3 3 3 3 5 7 6 4 4 3 4 6 5 5 6 8 10 11 11 12 13 17 19 17 12 7 3 2 3 2 3 7 3 7 5 1 1 5 6 7 8 5 3 3 3 2 3 5 5 4 4 6 8 10 11 11 12 12 13 14 13 11 9 7 8
6 6 6 7 7 8 8 8 8 9 10 10 10 8 8 7 6 5 4 3 3 3 3 3 3 3 4 5 7 7 6 4 3 5 6 4 5 6 7 9 11 12 13 14 17 18 16 12 6 3 2 3 2 0 6 5 3 4 3 3 4 5 7 7 4 4 3 3 2 4 5 5 3 4 6 5 7 8 8 9 12 16 17 15 14 11 9 11
7 6 6 7 7 8 9 8 8 8 9 10 10 8 7 7 5 4 3 2 2 3 3 4 3 3 4 6 8 8 9 7 5 5 4 4 4 6 7 8 11 12 13 14 17 18 18 13 7 4 4 5 5 5 2 7 3 4 3 3 4 4 4 6 5 5 4 3 3 3 4 3 2 2 4 3 4 6 7 8 10 15 18 17 16 14 13 14
7 6 6 6 7 8 9 9 8 7 8 9 9 8 6 6 5 4 3 2 3 3 3 3 4 3 4 7 9 9 9 9 7 5 3 3 4 6 7 7 9 11 13 15 17 20 20 15 9 7 6 8 7 5 7 4 5 2 4 6 6 3 2 4 3 3 3 4 4 3 1 2 5 4 3 3 3 3 5 7 8 12 17 18 18 17 17 17
8 7 7 7 7 8 8 8 8 7 8 8 9 8 6 5 4 3 3 3 3 4 4 4 5 4 4 6 8 10 11 10 9 7 3 2 4 6 7 7 7 9 12 13 16 20 20 15 12 11 10 11 8 6 8 2 5 2 6 10 10 7 6 5 2 1 3 4 4 2 0 2 5 6 4 3 1 1 2 5 6 9 14 17 18 18 19 18
8 8 8 8 8 8 8 8 8 7 7 7 8 7 5 4 3 3 3 2 3 4 4 6 7 7 7 7 7 10 11 10 10 7 4 4 7 7 8 8 6 8 9 10 14 18 19 17 13 13 13 11 8 6 7 6 0 4 8 12 14 14 10 6 4 3 3 4 2 1 0 2 5 5 2 0 1 1 2 3 4 7 12 15 16 17 18 18
8 8 8 9 8 8 8 8 7 7 7 7 7 6 4 3 2 2 2 2 2 3 4 6 7 8 10 10 8 9 11 12 10 6 4 6 10 10 10 10 8 7 7 9 11 12 14 16 13 11 12 9 7 6 6 8 7 4 8 10 14 17 13 8 6 4 3 4 2 1 1 2 4 4 3 3 3 1 2 4 4 6 9 13 15 16 18 19
9 8 8 9 9 8 8 8 7 7 7 6 6 6 4 2 1 1 2 2 1 2 4 6 7 7 8 10 9 10 14 16 10 4 3 5 9 11 13 11 8 6 6 9 9 7 8 12 12 11 12 10 7 5 4 5 8 7 8 12 15 16 14 10 8 5 4 5 4 4 2 2 3 3 3 4 4 3 2 3 3 5 9 12 13 15 18 20
9 9 8 9 9 9 8 8 6 6 6 5 5 5 4 3 2 2 2 2 2 2 3 5 6 6 6 9 9 10 17 19 11 4 2 5 5 8 13 10 7 6 6 6 6 6 5 7 8 9 11 12 8 5 4 5 8 8 9 14 16 16 16 13 11 7 7 6 4 5 4 1 3 3 3 2 3 4 4 3 4 5 8 11 13 15 17 20
10 10 9 8 9 10 8 7 6 5 5 5 5 5 5 4 4 3 4 5 4 3 1 1 3 4 5 8 7 9 16 18 12 7 4 6 7 6 9 9 7 9 8 6 6 5 3 4 6 6 10 14 11 11 10 8 7 6 6 12 15 17 20 17 13 8 6 6 5 6 6 3 5 6 6 5 3 5 5 6 6 6 7 9 12 14 16 19
11 10 10 9 9 10 9 7 6 5 5 6 5 5 6 5 5 5 5 6 7 6 4 3 2 4 3 5 6 7 14 15 11 10 8 7 9 7 7 9 10 11 10 9 8 6 3 2 5 6 9 12 11 13 11 4 5 8 11 15 14 15 18 14 11 8 6 5 5 6 4 1 5 8 8 7 6 7 7 8 8 7 7 9 12 14 16 19
12 11 10 10 9 9 10 7 6 5 5 6 6 6 6 5 7 9 8 7 8 8 6 4 4 4 2 4 6 5 11 12 9 8 9 8 10 11 9 10 11 11 11 10 7 3 2 3 4 4 5 4 5 9 9 8 11 14 15 15 10 10 14 11 9 10 8 5 4 4 2 1 4 8 9 9 9 9 9 8 8 9 9 11 14 16 17 19
14 12 11 11 9 9 10 8 6 5 4 5 6 6 7 7 9 11 8 7 8 8 6 5 6 4 3 5 7 2 7 10 6 4 8 8 7 8 9 9 8 8 8 6 3 1 4 6 6 3 3 6 7 7 11 12 12 11 12 11 7 6 10 8 9 12 11 7 4 4 4 3 4 7 10 11 11 9 9 9 9 10 12 14 15 17 19 20
15 14 12 12 11 9 9 9 7 5 4 4 5 8 9 8 9 10 8 6 7 7 6 6 8 7 5 4 7 5 6 8 6 2 4 7 5 5 6 6 6 5 3 0 3 5 9 8 9 4 7 9 7 5 8 10 10 9 11 12 9 6 4 6 9 12 12 7 6 7 5 3 4 8 11 12 10 8 9 9 10 12 15 17 18 19 21 24
16 15 13 12 13 11 9 9 8 6 5 6 8 9 9 9 8 9 10 7 5 7 6 6 6 6 6 6 5 5 6 7 9 4 1 2 4 3 1 2 2 2 3 4 6 9 12 7 10 6 5 9 8 7 7 10 12 12 12 12 12 10 7 9 11 12 13 6 6 9 7 6 9 10 12 10 8 8 9 10 12 14 16 18 20 20 23 28
17 15 14 12 13 12 10 9 9 8 7 9 10 10 10 10 9 8 10 8 4 4 3 3 6 6 8 7 4 3 5 7 8 4 1 2 2 4 4 2 4 7 6 6 9 13 16 11 5 7 6 7 11 10 9 12 13 11 10 10 11 14 15 15 13 13 14 5 6 12 9 9 11 8 9 9 9 9 10 12 14 15 17 19 20 18 23 31
17 15 14 13 12 13 12 11 10 9 9 10 9 10 10 9 10 9 8 8 3 3 2 4 6 6 9 8 5 2 6 6 4 4 3 4 5 7 6 6 7 7 6 10 14 19 19 11 10 12 8 5 10 11 9 10 12 10 7 6 8 12 15 17 15 16 20 10 10 13 6 7 9 7 8 10 10 10 12 13 14 15 17 20 19 14 20 30
16 15 14 13 12 12 13 12 11 11 10 9 7 8 7 5 8 8 7 9 4 5 5 5 6 5 7 8 7 3 6 5 4 3 3 3 4 7 8 10 11 10 10 13 15 16 13 6 10 11 8 7 10 10 9 9 14 15 7 4 8 10 7 9 11 18 22 15 13 13 7 5 10 9 9 10 10 12 13 12 13 16 17 19 17 12 16 24
15 13 13 14 12 11 13 12 12 11 10 8 6 6 6 4 6 6 6 7 4 4 6 6 5 3 4 8 9 5 2 3 4 3 1 1 3 6 8 10 12 11 9 11 15 11 7 4 6 7 8 9 8 8 8 10 13 13 9 6 6 6 7 1 8 12 13 13 14 16 10 5 10 12 10 9 9 12 12 11 13 16 16 16 13 9 11 17
15 11 11 13 12 10 11 12 12 13 11 8 6 6 6 6 4 3 3 2 1 3 6 7 5 4 7 10 9 6 2 0 2 2 1 1 3 7 8 7 9 11 8 11 16 9 4 5 2 4 8 7 7 7 8 9 6 1 3 5 4 5 6 4 12 11 9 12 15 18 13 5 8 12 9 7 8 10 10 10 13 14 14 13 10 5 5 9
15 11 9 11 13 10 10 12 13 13 12 8 7 7 6 5 3 2 2 1 2 3 5 8 8 7 10 12 9 7 5 2 1 3 5 5 6 7 7 6 10 13 10 10 15 10 6 7 5 6 9 8 7 8 8 6 4 4 1 4 3 6 4 6 12 14 13 12 12 15 15 7 5 10 8 4 7 7 7 9 12 11 12 13 11 9 7 5
15 12 9 9 12 10 10 12 12 13 13 10 9 9 7 5 4 2 1 0 1 2 6 9 12 10 9 11 11 8 8 6 2 3 6 6 7 6 5 6 9 11 9 10 13 11 9 11 9 9 11 7 7 6 7 5 3 1 2 4 5 1 0 2 5 7 7 7 8 9 14 10 3 6 6 3 5 5 5 8 10 7 9 12 13 15 15 14
15 13 11 9 9 10 10 11 12 13 13 12 11 9 7 6 6 3 1 2 2 3 7 10 13 15 10 7 9 8 8 9 7 7 9 7 6 6 5 7 7 8 9 9 9 8 10 12 12 12 10 6 7 5 3 6 3 2 3 3 3 4 4 6 7 7 4 5 7 7 13 10 3 4 4 2 4 5 5 7 8 5 5 8 11 14 14 13
14 13 12 10 8 9 10 9 11 13 13 13 11 10 9 7 8 9 5 4 4 4 8 9 13 17 12 6 7 7 8 11 11 13 13 10 8 8 8 10 10 8 8 9 7 6 9 11 11 13 10 6 8 6 2 9 5 5 5 5 3 1 1 3 2 4 4 3 5 11 12 7 3 5 5 2 4 5 5 5 5 3 3 4 7 9 10 11
14 12 12 11 9 8 9 8 10 13 13 14 13 12 12 8 7 13 12 6 1 6 6 9 13 13 12 10 9 8 8 11 13 16 17 15 14 11 10 11 13 14 12 12 11 9 8 6 6 9 12 6 3 3 3 3 4 6 4 5 6 2 1 2 2 2 3 1 10 14 9 5 5 5 4 2 4 5 5 3 1 1 2 2 2 4 5 7
15 13 12 11 10 8 8 7 10 13 14 15 14 13 15 11 9 12 12 7 4 10 10 8 13 15 13 12 9 9 10 13 15 17 18 19 19 15 12 13 15 17 17 16 14 9 7 3 2 6 9 7 2 4 4 3 5 4 8 6 4 3 2 2 3 2 1 7 13 10 4 5 6 4 4 2 3 4 4 1 1 0 1 1 1 1 1 1
15 14 13 12 9 7 7 7 9 12 14 16 15 17 19 19 15 11 9 5 5 9 11 11 11 21 17 13 11 11 13 14 17 20 20 20 21 16 13 15 15 17 20 18 13 5 3 4 6 4 2 3 2 2 1 4 5 4 7 8 7 4 3 4 3 3 9 10 5 2 4 7 7 4 4 2 3 3 4 2 2 0 0 1 2 1 1 2
14 14 15 13 10 6 5 5 8 12 15 17 18 20 22 20 15 10 7 5 4 11 14 13 5 24 23 17 15 15 17 16 16 21 24 23 22 20 17 15 14 15 19 19 11 5 1 4 4 2 4 4 4 2 3 4 6 7 7 8 10 10 6 4 2 5 12 8 2 3 6 8 7 5 6 5 4 3 2 1 1 1 1 1 1 1 1 1
13 12 11 11 10 7 4 4 8 12 15 18 20 22 22 20 17 13 9 8 5 12 16 17 3 14 16 14 12 9 13 17 17 19 24 24 23 22 19 17 14 12 13 15 9 3 1 1 3 2 4 6 2 4 3 4 5 6 6 6 8 7 4 2 2 1 6 4 0 1 4 9 7 4 7 8 5 3 2 2 1 2 2 2 1 2 0 2
12 10 6 6 9 8 4 3 5 10 15 19 22 22 22 21 20 18 13 10 8 11 15 17 10 5 3 2 3 7 7 13 17 18 17 17 17 13 11 13 12 9 9 12 9 4 2 2 2 3 2 5 2 4 4 5 3 3 3 5 6 4 2 3 3 0 3 2 1 1 4 8 7 6 8 9 5 4 2 2 2 2 2 1 0 1 1 3
11 10 6 5 8 8 4 3 3 9 14 18 21 21 21 21 20 16 12 9 8 12 14 13 11 12 11 9 8 8 6 6 8 15 14 13 12 7 4 6 6 10 13 11 9 6 5 2 3 5 3 3 2 1 5 5 1 1 2 3 5 5 4 4 2 3 5 3 2 1 2 5 8 9 8 7 4 3 2 2 3 3 3 2 2 2 2 2
9 9 8 7 9 8 6 4 3 6 11 15 18 18 17 18 18 14 11 9 7 9 12 12 11 15 18 15 12 10 9 10 7 9 11 12 13 11 8 6 4 10 12 8 6 5 7 6 4 5 5 0 3 3 5 6 3 3 4 4 4 8 5 4 2 2 3 4 4 3 2 6 10 10 9 7 5 3 2 3 4 4 4 3 3 2 2 1
8 8 8 8 10 10 8 6 4 4 7 9 11 13 13 14 14 11 10 9 7 9 13 16 15 16 18 16 14 14 13 11 9 10 11 9 14 15 11 7 6 8 8 7 6 6 6 7 5 4 3 2 5 8 7 6 6 6 5 6 5 7 6 2 2 5 6 4 7 6 2 7 13 11 9 9 7 4 3 3 3 4 5 4 4 3 2 1
6 7 7 5 6 7 9 7 3 3 2 3 6 8 8 10 10 8 8 8 7 10 12 14 13 14 18 16 14 14 14 14 13 10 12 13 10 16 11 7 9 9 7 7 6 6 7 8 6 4 4 2 2 6 5 4 7 8 3 6 7 5 6 3 1 2 6 6 8 8 3 7 14 12 10 10 8 6 5 3 3 4 5 4 4 4 3 1
5 4 6 4 3 5 9 8 3 4 3 6 7 7 6 8 7 5 6 6 7 11 12 12 11 12 15 14 12 12 12 16 16 11 10 13 7 9 9 7 11 9 7 9 8 8 8 7 6 5 2 3 5 3 4 4 6 7 5 4 5 4 5 3 2 2 3 6 6 5 2 6 14 12 11 10 8 7 5 4 3 4 4 4 4 4 4 2
5 5 7 6 4 4 6 7 4 4 4 7 10 8 7 9 9 7 7 8 10 11 11 12 11 11 13 13 11 11 11 13 17 15 12 10 6 1 3 8 12 8 7 9 9 7 6 5 6 4 3 2 4 6 5 4 5 6 4 5 6 5 3 1 2 1 2 6 4 4 4 7 11 10 10 7 5 7 5 3 3 3 4 5 5 5 4 3
8 9 11 11 9 5 1 4 4 5 5 8 10 8 7 10 11 9 11 14 16 14 11 12 14 14 15 15 13 12 10 11 16 17 16 14 9 2 0 2 5 9 9 8 9 10 5 6 7 5 3 1 2 2 0 2 2 6 4 6 6 2 3 2 3 2 3 5 4 7 8 10 11 10 9 7 5 6 5 3 2 2 3 4 5 6 6 5
10 12 14 13 11 8 7 5 7 9 8 9 8 5 7 12 10 7 9 12 14 16 15 14 14 16 18 18 16 14 12 11 12 13 14 15 13 10 10 9 8 11 12 11 13 14 7 8 7 5 3 3 6 5 3 1 3 7 8 6 4 1 1 3 3 4 4 3 3 7 8 11 13 11 9 8 7 6 5 4 2 2 3 3 4 5 6 7
12 15 16 13 10 11 13 13 12 11 9 9 9 7 9 12 9 6 6 5 4 11 16 15 11 12 17 19 18 17 14 13 12 12 12 12 11 11 14 13 7 6 10 10 10 10 8 7 8 7 4 3 5 5 5 5 6 8 9 9 8 3 2 4 2 4 2 1 3 8 7 6 9 10 10 10 8 5 4 4 4 7 8 7 7 7 8 9
13 16 16 13 11 13 15 15 14 13 11 11 13 12 11 10 8 9 8 7 2 2 10 13 10 8 11 15 18 20 17 15 14 14 12 10 9 9 8 5 2 7 5 6 9 8 6 6 8 9 8 7 5 3 3 5 9 9 7 8 9 5 1 2 1 2 2 3 4 7 6 4 6 9 10 8 7 5 4 5 8 12 12 10 8 8 9 9
13 15 15 15 15 14 15 15 14 14 12 11 13 13 11 10 7 9 10 9 6 1 5 11 12 10 10 12 14 17 17 16 16 16 15 11 10 11 7 2 4 7 4 6 9 10 7 5 7 10 10 9 8 4 1 4 5 7 9 8 8 7 4 2 2 1 4 6 6 6 7 5 5 8 9 7 5 4 5 7 11 12 10 8 6 6 8 8
14 14 14 17 18 17 17 16 15 16 14 10 9 10 9 9 9 8 7 8 8 8 9 13 14 12 11 12 14 16 16 16 16 18 18 17 14 12 7 0 3 4 1 2 8 10 5 3 7 10 11 11 10 9 6 5 5 5 8 9 9 11 9 5 4 4 6 9 9 8 8 7 6 8 8 6 5 5 7 9 11 9 7 6 7 7 7 7
14 14 15 18 20 20 20 19 18 18 16 12 8 9 10 9 10 11 9 5 8 12 13 13 13 10 9 9 9 10 11 14 15 16 17 18 15 10 7 4 4 4 1 2 2 7 7 6 8 8 8 6 6 8 10 8 8 9 9 8 8 9 8 7 6 6 7 9 10 9 9 8 7 7 7 5 5 6 8 9 9 7 7 9 10 11 10 9
15 15 16 18 19 20 21 22 20 19 17 16 15 14 13 11 11 12 12 9 9 15 17 13 8 5 5 5 4 3 5 9 12 14 15 13 12 10 10 8 7 6 4 2 2 3 8 10 10 9 6 4 4 7 8 6 7 8 7 6 5 4 3 5 7 8 8 8 11 11 8 7 6 7 7 6 6 7 8 9 9 8 9 11 12 13 13 12
Wind_Direction
34 33 33 33 32 30 28 25 20 14 5 358 351 345 339 332 327 323 322 321 320 323 330 332 328 331 329 318 314 317 315 286 256 250 242 236 228 220 225 219 204 199 191 189 185 179 168 157 163 159 146 94 51 48 355 319 311 258 255 269 284 51 39 24 36 71 125 159 167 177 172 163 155 154 167 167 163 164 152 105 98 198 246 292 250 179 119 124
28 28 26 26 25 21 18 15 13 10 3 357 349 343 335 328 325 321 322 320 318 322 325 326 328 335 332 330 348 5 18 51 123 233 220 200 204 198 209 210 199 193 185 187 181 179 175 161 171 176 144 114 97 89 328 295 286 262 238 242 242 52 19 10 21 43 94 154 172 172 168 163 159 166 177 179 184 168 149 153 173 231 255 276 244 185 121 125
21 23 22 21 21 16 12 9 6 5 3 358 352 345 336 328 325 324 325 321 320 321 319 322 327 334 332 345 38 74 81 80 79 73 80 140 165 174 190 194 194 189 185 188 180 179 177 166 185 186 138 112 96 58 310 294 288 270 234 225 235 13 2 359 10 30 43 45 206 185 167 168 175 184 192 194 200 195 190 184 196 253 266 259 263 238 117 144
12 15 18 17 16 13 9 6 3 3 2 360 358 353 345 336 331 332 334 329 325 321 318 323 329 337 335 356 73 104 98 88 79 81 101 123 148 158 179 185 184 182 181 178 173 178 178 178 192 177 133 103 58 333 308 309 293 266 228 222 244 317 351 354 360 18 29 15 354 188 175 180 191 198 205 202 202 202 218 220 205 241 264 270 288 295 302 175
2 4 11 12 12 10 6 5 4 3 3 2 2 2 359 351 346 346 346 342 332 322 322 331 339 341 340 5 83 113 110 97 72 96 131 130 151 160 172 179 174 168 167 163 165 169 166 174 173 160 146 80 29 359 340 334 292 244 215 221 241 295 353 356 356 0 29 26 20 181 189 193 198 206 207 201 206 202 201 224 221 239 277 298 292 281 280 189
352 354 0 6 8 8 5 5 4 4 4 5 7 8 7 4 2 1 0 358 338 326 330 340 349 351 359 11 48 81 112 114 44 94 138 134 150 158 161 169 169 158 154 157 160 158 154 161 163 155 130 52 25 14 358 341 254 209 196 208 235 315 354 355 358 347 19 22 359 318 205 203 203 212 205 195 201 199 189 201 221 238 266 291 282 274 287 203
346 347 352 358 3 7 6 4 4 4 4 7 10 12 11 9 10 9 11 7 340 335 340 344 355 1 13 32 38 62 108 88 25 72 129 132 143 149 153 164 168 155 155 158 155 159 158 155 154 135 93 38 359 354 357 0 191 203 194 189 241 0 3 358 359 342 23 5 329 316 240 214 207 208 196 188 189 191 189 193 216 229 246 273 270 267 291 229
349 346 349 353 357 5 8 6 4 3 4 7 10 13 13 10 14 17 17 6 339 340 346 344 355 7 26 52 55 69 83 24 15 82 110 123 136 141 153 165 167 158 159 160 159 163 160 157 161 122 74 341 337 340 355 18 188 220 199 174 321 4 10 9 10 349 22 356 318 301 255 220 203 194 187 189 185 188 186 188 208 216 229 255 259 255 268 245
359 352 350 351 354 359 7 9 4 2 4 5 8 13 13 12 18 23 21 3 340 344 350 350 353 11 40 58 61 52 31 9 14 68 82 106 128 136 151 163 166 164 161 162 168 167 159 163 165 94 1 304 342 22 13 1 223 251 271 258 337 355 356 6 19 355 4 358 313 260 243 220 206 198 198 197 192 198 193 186 201 212 226 242 243 244 246 238
4 359 353 350 352 356 4 9 5 1 1 4 5 9 12 13 19 28 26 355 348 355 352 360 3 22 39 50 51 37 40 47 39 47 54 85 121 134 144 162 170 168 163 167 172 169 170 172 145 112 241 253 215 168 24 20 206 220 281 313 332 335 341 356 19 7 360 350 302 246 241 230 221 221 213 202 190 202 208 194 200 213 227 234 233 237 237 235
358 358 354 349 350 353 359 7 6 358 357 2 2 5 12 15 20 29 27 3 7 11 3 11 15 25 37 48 41 36 56 68 59 52 42 62 112 140 138 156 174 172 168 171 173 176 184 180 154 171 211 220 233 209 109 26 61 184 270 300 285 305 348 8 33 35 9 328 300 267 258 229 149 186 200 176 160 183 209 209 205 215 227 233 231 232 231 231
348 348 346 344 343 345 353 3 4 355 353 358 359 1 8 15 22 26 33 28 26 30 25 22 17 29 59 59 38 21 42 65 71 70 47 55 112 145 138 147 175 177 176 178 179 183 186 180 174 192 209 216 226 185 151 39 16 198 270 277 259 270 316 345 21 36 354 326 314 306 281 142 109 109 134 125 131 164 207 216 212 213 224 233 233 232 229 227
342 338 335 333 332 334 343 355 359 351 347 353 357 358 3 17 24 23 42 42 42 48 41 33 27 41 60 49 30 10 18 43 58 69 72 97 125 142 136 135 168 181 184 189 187 186 184 183 189 192 201 210 210 193 171 123 356 271 267 276 269 260 263 290 297 280 317 328 326 314 298 140 119 107 108 115 141 205 212 223 226 213 219 229 233 233 232 229
340 335 331 328 324 324 329 344 353 345 343 348 352 355 358 12 25 27 46 51 52 54 53 53 51 63 53 31 23 9 7 25 39 56 81 121 138 147 141 130 147 177 192 205 195 191 192 195 200 187 187 204 206 214 196 166 175 298 282 268 258 258 260 266 259 248 281 314 335 320 355 147 142 127 123 80 357 300 195 215 242 232 225 229 232 229 233 235
339 335 331 327 323 321 321 333 343 338 338 342 345 349 348 2 28 32 49 62 60 59 62 61 66 72 52 35 33 21 16 23 24 35 74 133 153 143 128 116 119 149 181 205 205 206 209 207 210 194 188 201 202 212 221 195 200 264 284 257 248 257 256 252 260 242 255 292 275 179 86 120 153 154 196 266 322 341 197 204 243 259 245 237 234 230 235 237
333 334 332 327 325 323 319 326 334 331 330 332 336 337 333 342 24 56 76 91 99 82 62 59 72 76 49 39 46 39 33 29 19 12 70 136 161 137 110 95 98 128 163 190 204 214 216 216 219 209 197 201 205 215 246 222 204 217 256 262 261 253 234 236 261 235 216 266 253 204 172 105 155 178 214 261 309 310 224 216 250 257 247 242 236 231 234 237
325 327 329 327 325 325 322 324 326 323 320 319 322 319 311 297 234 177 146 143 151 114 62 61 71 77 55 45 52 42 31 27 24 12 42 95 115 114 104 88 90 123 147 169 187 196 205 215 213 209 207 210 220 236 236 217 212 212 234 259 267 247 224 231 247 231 208 229 246 222 215 189 198 220 229 251 299 269 248 273 283 261 248 244 237 232 233 235
316 317 320 322 322 324 327 329 326 315 309 305 307 306 302 296 273 234 197 189 197 217 284 36 63 86 75 57 60 29 15 16 25 30 30 71 67 80 108 108 116 122 119 129 143 149 150 172 178 191 209 209 210 216 211 193 201 219 243 264 264 238 227 235 243 247 228 205 207 230 232 224 230 240 238 247 268 245 259 284 281 278 265 252 246 244 241 237
308 310 312 313 314 318 324 335 330 309 298 292 297 304 300 299 295 272 238 227 221 222 230 213 143 116 102 75 69 17 3 7 22 43 51 70 73 76 110 122 125 120 111 115 120 110 94 164 187 182 190 200 202 206 209 206 248 276 289 282 270 237 229 239 248 253 246 210 192 216 229 238 253 256 247 246 245 246 281 292 283 296 287 268 263 259 252 243
301 303 305 306 307 309 314 331 335 308 292 289 296 302 290 281 284 278 266 255 234 224 229 198 155 132 126 114 93 18 349 354 7 45 56 70 86 90 110 120 117 114 111 116 117 90 358 284 238 186 162 206 234 224 235 275 281 282 291 290 286 255 237 245 257 242 227 214 192 201 221 238 261 259 246 240 241 259 298 302 288 301 296 283 276 267 260 249
296 296 298 299 299 300 304 317 332 314 292 295 298 290 278 276 283 285 270 234 225 237 242 210 192 183 163 137 116 73 323 329 336 43 50 55 84 105 117 116 109 107 105 111 129 211 290 299 293 283 323 327 316 285 270 278 278 277 288 293 305 277 243 252 263 235 215 208 200 199 209 220 232 229 228 231 242 268 308 309 294 291 288 286 277 265 257 247
294 292 292 294 294 294 296 303 318 312 281 268 268 266 268 273 285 295 286 237 221 242 243 225 223 220 207 147 123 161 247 295 308 305 33 41 60 104 127 123 115 112 93 149 252 250 263 310 357 338 295 313 331 323 286 277 281 291 298 288 280 287 276 276 261 223 204 204 215 206 196 200 188 193 211 225 245 280 311 309 293 283 284 286 279 265 250 237
292 290 289 289 289 289 290 291 298 299 270 249 252 258 262 266 274 285 287 276 241 248 255 242 237 224 201 169 147 185 215 282 304 289 297 359 44 40 222 167 155 228 247 249 258 260 261 297 32 36 283 268 276 304 288 270 282 293 297 282 264 265 264 262 254 210 188 201 219 202 189 181 176 187 211 228 253 281 301 299 290 288 291 294 290 273 246 228
292 290 287 285 285 285 285 283 284 286 274 267 271 274 275 275 278 274 278 291 275 253 265 222 221 201 180 173 161 203 238 283 285 257 317 306 282 328 316 297 290 271 263 273 269 271 278 288 324 324 302 244 257 292 286 270 281 284 284 286 275 267 258 260 259 204 177 188 209 192 181 179 183 200 229 246 264 275 292 297 298 300 304 310 307 281 243 227
295 291 289 285 282 280 279 277 276 276 277 285 291 292 298 299 289 283 292 307 293 190 157 157 177 164 163 165 131 161 251 261 246 236 328 335 279 294 299 276 281 275 287 308 293 282 288 286 259 277 305 265 264 288 283 271 278 278 282 305 318 301 272 265 256 198 174 175 194 194 189 183 193 217 239 252 273 290 304 304 308 315 320 324 317 285 242 230
298 295 293 285 280 276 275 273 272 273 278 289 295 293 303 302 283 291 312 316 299 190 189 163 158 150 147 149 134 156 248 226 173 229 299 336 289 286 278 260 268 286 298 311 309 294 288 266 237 260 289 277 277 287 287 292 283 270 261 298 339 349 317 263 227 192 183 186 194 204 221 201 194 213 240 260 284 303 308 306 315 328 335 331 316 282 245 235
306 303 297 287 279 270 268 268 267 269 272 277 287 289 279 248 263 298 315 315 306 191 192 176 168 183 152 141 149 166 239 214 171 166 152 49 286 289 286 259 258 279 288 298 307 304 300 288 237 254 276 273 286 294 302 325 302 265 245 270 305 356 11 30 190 191 187 187 193 206 220 208 195 209 233 258 287 309 313 313 322 336 345 339 320 283 249 237
317 317 304 289 280 266 262 262 259 262 262 263 275 277 265 250 256 304 326 329 294 185 179 177 170 174 175 168 169 171 140 104 184 189 216 233 260 281 290 262 254 265 263 285 298 296 296 304 274 275 284 277 291 293 303 342 357 236 242 271 290 336 356 129 169 180 172 177 190 202 211 209 200 206 217 254 294 320 329 329 332 343 359 360 349 318 251 229
325 326 310 291 283 270 258 255 252 256 256 251 252 250 251 254 243 257 304 338 223 205 177 181 181 171 179 186 190 190 189 192 247 280 267 249 251 273 284 267 264 268 255 265 279 273 255 258 265 274 261 263 292 278 272 317 23 74 355 260 286 345 3 132 155 163 162 176 192 197 200 201 197 199 206 267 304 321 335 344 344 353 15 24 29 50 85 111
329 327 314 297 289 280 261 251 245 247 249 241 237 239 242 239 215 201 272 187 147 194 195 193 192 188 190 200 208 211 213 208 209 260 244 235 251 278 291 271 273 271 250 239 253 263 254 235 240 247 236 257 312 288 253 279 310 339 342 267 253 280 102 197 206 196 182 206 222 199 195 204 218 199 205 267 288 298 319 345 352 2 27 39 54 70 82 80
332 328 319 307 296 287 269 255 244 238 239 236 231 230 225 210 197 183 166 217 210 211 216 205 198 203 211 219 214 205 200 200 205 223 226 226 239 259 264 253 266 275 267 260 255 261 250 229 233 240 230 253 302 316 223 199 219 321 11 329 248 168 190 233 248 246 240 250 250 206 190 200 207 179 182 240 270 294 316 336 349 3 32 47 62 69 75 79
337 330 321 312 303 292 275 262 246 233 230 229 225 219 209 196 207 213 199 185 202 246 240 217 205 211 216 220 205 184 180 193 208 221 226 236 246 257 267 258 260 271 278 286 295 293 264 239 241 239 217 233 285 313 175 179 212 305 309 295 275 144 184 243 260 238 228 252 212 187 186 184 160 167 169 201 279 317 338 338 349 15 33 47 63 66 69 74
338 334 325 314 309 298 278 262 244 232 223 219 218 212 199 187 217 226 215 189 111 349 296 237 221 209 206 215 199 182 203 210 219 228 226 236 251 261 274 272 268 267 271 282 291 307 303 270 253 222 201 211 284 16 71 165 278 314 334 298 260 194 95 275 273 261 269 184 159 172 187 174 158 170 163 179 295 317 341 348 358 62 49 52 74 86 88 80
336 335 330 319 312 300 279 257 241 232 220 212 211 203 196 200 218 226 223 225 328 355 348 288 238 205 203 231 211 190 221 218 217 230 227 229 243 253 263 269 267 263 263 270 276 294 325 313 186 180 198 218 169 82 38 333 296 352 44 15 275 178 128 217 214 238 189 145 153 168 191 164 156 148 143 163 296 303 325 9 157 214 60 69 3 111 148 118
332 335 333 327 317 302 278 249 233 227 217 210 206 201 205 215 222 228 231 237 325 346 355 337 244 203 207 245 236 219 235 222 211 224 226 228 238 248 267 276 270 259 249 249 253 262 22 81 140 150 192 256 235 145 272 277 288 354 25 0 348 359 302 246 226 184 147 133 125 110 134 156 164 151 144 186 267 288 316 6 124 207 73 54 23 15 297 285
330 335 336 333 326 314 290 253 226 220 214 208 206 210 218 225 227 237 228 208 343 352 352 352 220 196 207 233 234 233 241 230 215 218 222 229 240 247 266 280 276 261 238 227 226 213 89 81 136 139 22 350 294 244 230 267 296 310 312 324 341 343 313 267 235 147 132 123 54 74 135 161 171 173 168 191 229 247 296 324 102 135 148 85 64 97 320 297
328 337 344 346 348 345 318 271 225 213 209 209 212 219 228 232 230 235 232 224 308 345 339 339 305 194 209 225 230 252 251 230 215 217 220 224 236 247 258 266 270 265 231 214 208 185 266 2 145 179 9 16 317 251 277 313 310 298 307 328 331 331 338 340 293 121 99 93 67 101 174 175 168 191 179 175 195 194 205 236 174 154 156 140 115 110 63 312
321 331 351 7 1 356 333 289 223 211 207 210 218 224 231 237 234 237 248 258 297 326 326 326 312 270 293 292 316 343 285 229 210 215 222 219 228 247 253 251 254 245 208 201 204 162 91 38 126 181 8 28 327 269 323 347 308 284 333 357 345 329 302 346 350 46 86 73 157 178 210 189 195 228 189 166 180 182 184 219 190 189 194 189 201 52 14 331
317 325 340 354 349 353 0 346 246 219 214 216 224 229 233 240 239 240 248 257 288 314 324 327 305 285 293 305 329 353 336 295 231 224 222 209 223 254 240 228 220 191 178 183 202 183 146 158 151 166 172 26 343 266 11 11 302 254 312 336 8 5 302 303 13 118 136 136 176 192 260 219 215 226 201 176 198 206 202 217 198 207 232 250 282 318 319 309
310 316 329 349 349 356 9 354 304 236 232 232 236 241 244 248 249 244 241 248 274 299 306 313 307 287 278 281 299 319 331 336 314 269 248 223 233 251 237 224 187 176 183 196 204 169 153 169 154 164 197 208 53 51 8 1 344 310 300 298 360 15 342 300 358 42 111 135 149 135 285 230 202 207 207 203 232 256 213 209 214 223 231 253 276 280 282 285
298 305 320 359 5 2 6 4 348 273 254 256 260 262 263 265 264 249 231 235 260 277 287 299 303 286 277 285 300 311 319 316 315 320 310 274 253 246 231 212 195 189 202 210 183 136 137 159 140 110 150 113 46 25 12 17 7 338 286 268 312 12 14 356 28 27 47 99 163 164 197 213 195 197 208 216 245 261 226 217 237 243 242 252 273 286 309 338
278 293 302 347 16 6 8 15 355 277 274 328 306 292 282 273 272 258 222 209 243 279 291 297 297 278 271 288 308 315 313 299 295 310 326 331 287 242 224 185 194 205 202 190 167 148 156 163 162 132 112 138 30 21 17 15 2 354 312 269 292 349 356 341 112 44 35 68 153 162 139 187 190 198 213 220 239 252 249 251 247 253 251 248 269 284 298 322
255 267 275 300 344 345 359 13 340 274 337 5 333 317 307 284 280 275 246 224 255 283 284 278 281 273 267 280 304 315 310 295 290 288 306 341 333 234 221 183 187 192 178 172 166 170 177 176 176 159 136 226 227 250 291 307 322 333 350 329 305 309 318 336 121 171 42 66 127 140 94 178 185 198 214 220 238 248 250 248 226 234 240 242 267 270 268 291
227 205 226 240 247 284 334 5 357 286 301 340 328 313 302 290 293 302 287 274 277 279 269 257 259 264 264 270 286 305 312 295 286 282 285 319 355 149 190 185 192 198 186 177 178 192 202 195 177 137 84 287 267 265 279 325 310 285 320 354 322 278 261 37 80 162 69 60 105 139 146 171 173 184 198 203 228 231 230 238 217 219 236 244 260 254 249 273
213 203 212 220 215 206 355 0 336 290 281 311 308 294 303 305 300 296 283 273 267 264 265 260 250 247 254 261 269 280 294 291 288 289 286 286 288 275 104 181 227 252 249 229 232 237 207 155 162 142 110 188 256 240 236 23 309 249 274 353 355 281 191 76 47 91 86 66 115 144 152 169 170 172 181 182 196 207 217 239 220 223 250 239 240 240 242 258
215 210 212 222 220 187 162 203 255 262 271 299 299 292 321 311 288 271 277 276 258 247 261 279 265 244 240 248 261 272 275 272 280 291 287 282 280 272 281 308 308 271 250 236 237 234 198 149 166 172 152 226 235 213 187 212 265 262 277 312 347 35 70 21 47 111 107 72 140 150 153 174 183 184 185 183 183 195 216 233 245 307 306 263 250 254 256 259
227 222 213 214 218 203 198 215 240 246 250 280 288 298 315 303 288 285 284 290 261 242 254 274 276 251 242 246 256 264 264 257 260 272 277 283 287 273 277 297 303 229 215 212 214 214 196 183 196 208 211 230 244 243 227 226 255 278 287 293 292 287 32 9 34 110 97 28 169 169 170 191 204 200 190 185 185 199 232 252 290 312 307 294 283 276 272 264
235 234 225 216 214 213 213 221 236 239 238 256 268 279 294 293 307 326 296 258 234 262 259 260 265 267 262 260 260 261 262 259 260 267 272 280 282 260 268 305 196 182 204 234 223 213 219 220 207 207 203 180 186 239 266 254 261 265 275 303 308 307 17 21 40 54 317 262 189 181 193 226 228 205 192 192 203 230 266 283 306 310 301 293 288 279 274 266
242 239 237 231 228 226 224 224 229 234 236 248 260 268 281 288 308 336 318 280 255 280 298 282 279 282 280 273 263 261 265 264 264 268 268 278 289 274 274 10 164 200 262 279 236 228 255 256 197 189 195 193 193 197 323 321 286 254 251 275 304 311 299 211 155 317 271 230 209 204 206 214 211 199 198 199 208 239 277 293 309 309 295 289 292 285 280 273
254 246 241 237 235 236 237 237 239 238 230 233 260 269 269 281 295 299 305 307 287 271 285 295 292 288 292 287 265 253 260 264 267 270 268 272 284 280 273 287 158 196 297 294 225 225 241 226 195 203 213 215 218 226 249 293 308 292 279 275 283 288 276 248 235 248 225 210 213 217 212 205 188 185 194 196 206 245 277 292 304 305 290 291 298 294 293 290
260 254 246 239 237 238 242 245 250 249 237 228 255 274 257 256 281 278 266 290 305 282 273 287 297 294 296 289 256 242 259 263 264 269 267 268 274 270 257 238 203 217 275 62 213 235 228 203 204 214 212 208 229 244 253 268 276 288 296 289 291 293 274 255 254 239 210 198 204 208 204 196 179 171 179 190 213 244 270 286 295 291 285 293 300 300 302 300
265 258 252 247 242 238 240 244 249 252 248 238 243 254 252 247 259 270 266 260 276 276 268 274 292 276 263 267 230 226 285 273 263 262 256 252 251 243 240 233 208 211 232 61 71 229 223 207 195 192 199 221 266 264 266 274 269 277 289 282 291 309 270 264 270 256 234 214 217 226 216 194 186 184 188 204 229 249 267 281 289 289 291 295 297 300 302 301
Height
3169 3168 3168 3167 3167 3167 3166 3165 3165 3164 3164 3163 3162 3162 3161 3161 3160 3160 3160 3159 3159 3159 3158 3158 3158 3157 3157 3157 3157 3157 3157 3157 3157 3158 3158 3159 3160 3161 3161 3162 3163 3164 3165 3166 3168 3169 3170 3171 3172 3172 3171 3171 3171 3172 3172 3171 3171 3172 3173 3174 3175 3174 3173 3172 3172 3171 3172 3172 3173 3173 3173 3173 3174 3175 3175 3175 3174 3173 3172 3172 3172 3172 3173 3173 3173 3173 3174 3174
3169 3168 3168 3167 3167 3166 3166 3165 3165 3164 3163 3163 3162 3161 3160 3160 3159 3159 3159 3159 3158 3158 3158 3157 3157 3157 3157 3156 3156 3156 3156 3156 3156 3157 3157 3158 3159 3160 3160 3161 3162 3163 3164 3165 3166 3168 3169 3170 3172 3172 3172 3170 3170 3171 3172 3172 3172 3172 3173 3174 3174 3174 3173 3172 3172 3171 3172 3172 3173 3173 3173 3173 3174 3174 3175 3174 3174 3173 3172 3172 3172 3172 3172 3172 3172 3173 3174 3174
3169 3168 3168 3167 3167 3166 3166 3165 3164 3164 3163 3162 3161 3160 3160 3159 3159 3158 3158 3158 3157 3157 3157 3157 3156 3156 3156 3156 3156 3156 3156 3156 3156 3156 3157 3157 3158 3159 3160 3160 3161 3162 3163 3164 3166 3167 3169 3170 3171 3172 3171 3170 3169 3170 3171 3172 3172 3173 3174 3174 3174 3173 3173 3172 3172 3172 3172 3172 3172 3172 3172 3173 3173 3174 3174 3174 3173 3173 3172 3172 3172 3171 3171 3171 3171 3172 3173 3173
3169 3168 3168 3167 3167 3166 3165 3165 3164 3163 3162 3161 3161 3160 3159 3159 3158 3158 3157 3157 3157 3157 3156 3156 3156 3156 3156 3156 3156 3156 3156 3156 3157 3156 3156 3156 3157 3158 3159 3160 3161 3162 3163 3164 3165 3167 3168 3169 3170 3171 3170 3169 3170 3170 3170 3172 3172 3172 3173 3174 3173 3173 3173 3172 3171 3171 3172 3171 3171 3171 3171 3172 3173 3173 3173 3173 3172 3172 3172 3171 3171 3171 3171 3170 3170 3171 3172 3172
3168 3168 3167 3167 3166 3166 3165 3164 3164 3163 3162 3161 3160 3159 3159 3158 3158 3157 3157 3157 3156 3156 3156 3156 3155 3155 3155 3155 3156 3156 3156 3157 3157 3157 3156 3156 3157 3157 3158 3159 3160 3161 3162 3163 3165 3166 3167 3168 3170 3170 3170 3170 3171 3171 3171 3171 3172 3171 3172 3173 3172 3172 3173 3172 3171 3171 3171 3171 3171 3171 3171 3172 3172 3172 3172 3172 3172 3172 3171 3171 3171 3171 3171 3170 3170 3170 3171 3171
3168 3168 3167 3167 3166 3166 3165 3164 3163 3163 3162 3161 3160 3159 3158 3158 3157 3157 3157 3156 3156 3155 3155 3155 3155 3155 3155 3155 3155 3156 3156 3157 3157 3156 3156 3156 3156 3157 3157 3158 3159 3160 3162 3163 3164 3166 3167 3167 3169 3169 3169 3170 3170 3170 3169 3169 3170 3171 3171 3172 3172 3172 3173 3172 3171 3171 3171 3171 3171 3171 3171 3171 3171 3171 3171 3172 3172 3172 3172 3171 3171 3171 3171 3171 3170 3170 3170 3171
3168 3167 3167 3166 3166 3165 3165 3164 3163 3162 3162 3161 3160 3159 3158 3158 3157 3157 3156 3156 3155 3155 3155 3155 3155 3155 3155 3155 3155 3155 3156 3156 3156 3156 3155 3155 3155 3156 3156 3158 3159 3160 3161 3162 3164 3165 3166 3167 3168 3169 3168 3168 3168 3169 3170 3168 3168 3170 3171 3172 3172 3172 3172 3172 3171 3171 3171 3171 3171 3171 3171 3171 3171 3171 3171 3171 3172 3172 3172 3171 3171 3171 3171 3171 3171 3170 3170 3171
3167 3167 3167 3166 3165 3165 3165 3164 3163 3162 3161 3160 3160 3159 3158 3158 3157 3157 3156 3156 3155 3155 3155 3155 3155 3155 3155 3155 3155 3155 3155 3155 3155 3155 3155 3155 3155 3155 3156 3157 3158 3159 3160 3162 3164 3164 3165 3167 3168 3168 3167 3167 3167 3170 3172 3171 3170 3171 3171 3171 3171 3171 3172 3172 3171 3171 3171 3170 3170 3170 3170 3170 3170 3171 3171 3171 3172 3172 3172 3171 3171 3171 3171 3171 3171 3170 3170 3170
3167 3167 3166 3166 3165 3165 3164 3164 3163 3162 3161 3160 3159 3159 3158 3157 3157 3156 3156 3155 3155 3155 3155 3155 3154 3154 3155 3155 3155 3156 3155 3155 3155 3155 3154 3154 3155 3155 3155 3156 3158 3159 3160 3162 3163 3164 3165 3167 3168 3167 3166 3166 3167 3170 3172 3172 3171 3171 3170 3170 3170 3171 3171 3171 3170 3170 3170 3170 3170 3170 3170 3170 3170 3171 3171 3171 3171 3171 3172 3172 3171 3171 3171 3171 3171 3171 3171 3170
3167 3166 3166 3165 3165 3164 3164 3164 3163 3162 3161 3160 3159 3158 3158 3157 3157 3156 3156 3155 3155 3155 3155 3154 3154 3154 3154 3155 3155 3155 3155 3155 3154 3154 3154 3154 3154 3155 3155 3156 3157 3158 3160 3161 3162 3164 3165 3167 3167 3166 3165 3165 3166 3168 3170 3171 3170 3170 3170 3170 3170 3170 3171 3170 3170 3170 3170 3170 3170 3169 3169 3170 3170 3170 3170 3171 3171 3171 3171 3171 3172 3171 3171 3171 3171 3170 3171 3171
3166 3166 3166 3165 3165 3164 3164 3163 3163 3162 3161 3160 3159 3158 3157 3157 3157 3156 3156 3155 3155 3155 3154 3154 3154 3154 3154 3154 3155 3155 3155 3155 3154 3154 3154 3154 3154 3155 3155 3156 3157 3158 3159 3160 3162 3163 3164 3165 3165 3165 3165 3165 3165 3167 3169 3170 3169 3170 3170 3170 3170 3170 3170 3170 3169 3169 3169 3169 3169 3169 3169 3170 3170 3170 3170 3170 3171 3171 3171 3171 3171 3171 3170 3170 3170 3170 3170 3171
3166 3166 3165 3165 3164 3164 3163 3163 3162 3162 3161 3160 3159 3158 3157 3157 3156 3156 3155 3155 3155 3155 3154 3154 3154 3154 3154 3154 3154 3154 3154 3154 3154 3154 3154 3154 3155 3155 3155 3156 3157 3158 3159 3160 3161 3161 3162 3163 3163 3164 3165 3165 3165 3167 3168 3169 3170 3170 3170 3170 3169 3169 3169 3169 3169 3169 3169 3169 3169 3169 3169 3169 3169 3169 3170 3170 3170 3170 3170 3170 3171 3171 3170 3169 3169 3169 3169 3170
3165 3165 3165 3164 3164 3163 3163 3162 3162 3161 3160 3160 3159 3158 3157 3157 3156 3156 3155 3155 3155 3155 3154 3154 3154 3154 3155 3155 3155 3154 3153 3153 3154 3154 3154 3154 3155 3155 3156 3156 3157 3158 3159 3160 3161 3162 3162 3163 3163 3163 3164 3164 3165 3166 3167 3169 3169 3169 3169 3169 3169 3168 3168 3169 3168 3168 3168 3168 3168 3168 3169 3169 3169 3169 3169 3169 3169 3169 3169 3169 3170 3170 3169 3169 3169 3169 3169 3169
3165 3164 3164 3163 3163 3162 3162 3162 3161 3161 3160 3160 3159 3158 3157 3157 3156 3156 3155 3155 3155 3155 3155 3154 3154 3155 3155 3155 3155 3154 3153 3152 3153 3154 3154 3155 3155 3156 3156 3156 3157 3158 3160 3161 3162 3162 3162 3162 3163 3163 3164 3165 3166 3166 3167 3168 3168 3169 3169 3168 3168 3167 3168 3168 3168 3168 3168 3168 3167 3167 3168 3168 3168 3168 3168 3168 3168 3168 3168 3168 3168 3169 3168 3168 3168 3168 3168 3168
3165 3164 3163 3163 3162 3162 3161 3161 3161 3160 3160 3159 3158 3158 3157 3156 3156 3156 3155 3155 3155 3155 3155 3154 3154 3155 3155 3155 3155 3155 3154 3152 3152 3153 3154 3155 3155 3155 3156 3156 3157 3158 3160 3161 3162 3163 3162 3162 3163 3163 3164 3165 3165 3166 3166 3166 3167 3168 3168 3168 3167 3167 3167 3168 3168 3167 3167 3167 3167 3167 3167 3167 3168 3168 3167 3168 3167 3167 3167 3168 3168 3167 3167 3167 3167 3167 3167 3167
3164 3163 3163 3162 3161 3161 3160 3160 3160 3160 3159 3159 3158 3157 3157 3156 3156 3155 3155 3155 3155 3155 3155 3154 3154 3154 3155 3155 3155 3156 3155 3153 3153 3154 3154 3155 3155 3154 3154 3155 3157 3158 3159 3160 3161 3162 3162 3162 3163 3163 3164 3164 3165 3166 3166 3166 3166 3166 3166 3166 3167 3167 3167 3168 3167 3166 3166 3166 3166 3166 3166 3166 3167 3167 3167 3167 3167 3166 3167 3167 3167 3167 3167 3166 3166 3167 3167 3167
3163 3163 3162 3161 3161 3160 3160 3160 3159 3159 3158 3158 3157 3157 3156 3156 3155 3155 3155 3155 3155 3155 3155 3154 3154 3154 3154 3155 3155 3156 3155 3154 3155 3155 3154 3154 3154 3154 3154 3155 3157 3158 3159 3160 3161 3161 3162 3162 3163 3163 3163 3164 3165 3165 3165 3166 3166 3165 3165 3165 3165 3166 3166 3166 3165 3164 3164 3164 3165 3165 3166 3166 3166 3167 3167 3167 3166 3166 3166 3166 3167 3167 3166 3166 3166 3166 3166 3166
3163 3162 3162 3161 3160 3159 3159 3159 3158 3158 3158 3157 3157 3156 3156 3155 3155 3155 3154 3154 3154 3154 3154 3154 3154 3154 3154 3154 3154 3155 3155 3155 3156 3155 3154 3154 3154 3154 3154 3155 3157 3159 3160 3161 3161 3161 3162 3162 3162 3162 3162 3163 3164 3164 3164 3164 3164 3164 3164 3163 3164 3163 3164 3164 3163 3162 3162 3163 3164 3164 3164 3164 3165 3165 3166 3166 3166 3165 3165 3165 3166 3166 3166 3165 3165 3165 3165 3164
3162 3161 3161 3160 3160 3159 3158 3158 3158 3157 3157 3156 3156 3156 3155 3155 3154 3154 3154 3153 3153 3153 3153 3153 3153 3153 3154 3153 3153 3155 3155 3155 3156 3155 3155 3155 3154 3155 3155 3156 3158 3159 3160 3160 3161 3161 3161 3161 3161 3161 3161 3162 3162 3162 3162 3163 3163 3163 3162 3163 3163 3162 3161 3162 3162 3161 3161 3162 3163 3163 3163 3164 3164 3164 3165 3165 3165 3165 3165 3164 3164 3164 3164 3164 3164 3163 3163 3163
3160 3160 3160 3159 3159 3158 3158 3157 3157 3157 3156 3156 3156 3155 3155 3154 3154 3153 3153 3153 3152 3152 3152 3153 3153 3153 3153 3152 3152 3153 3154 3155 3156 3156 3156 3156 3155 3155 3157 3158 3158 3159 3159 3160 3161 3161 3161 3161 3160 3160 3160 3161 3162 3162 3162 3162 3162 3162 3161 3162 3162 3161 3161 3161 3161 3161 3161 3161 3162 3163 3162 3163 3163 3163 3164 3164 3164 3164 3164 3163 3162 3162 3162 3161 3161 3160 3160 3161
3158 3158 3158 3158 3158 3157 3157 3157 3157 3156 3156 3155 3155 3155 3154 3153 3153 3152 3151 3151 3151 3151 3151 3152 3152 3152 3152 3152 3151 3152 3154 3155 3157 3157 3156 3156 3157 3156 3157 3158 3158 3159 3159 3160 3160 3160 3160 3159 3159 3159 3160 3160 3160 3161 3161 3161 3160 3161 3161 3161 3161 3160 3160 3160 3159 3159 3160 3161 3162 3162 3162 3162 3162 3163 3163 3164 3163 3163 3162 3161 3161 3160 3160 3159 3158 3157 3156 3157
3156 3157 3157 3157 3156 3156 3156 3156 3156 3155 3155 3154 3154 3153 3152 3152 3151 3151 3150 3150 3150 3150 3150 3151 3151 3151 3152 3151 3151 3152 3154 3155 3156 3157 3157 3156 3157 3157 3158 3157 3158 3158 3159 3159 3159 3160 3160 3158 3157 3157 3159 3159 3158 3159 3159 3159 3159 3160 3160 3160 3159 3159 3159 3159 3158 3159 3160 3161 3161 3161 3161 3161 3162 3162 3163 3163 3162 3162 3161 3160 3160 3159 3158 3156 3155 3153 3152 3152
3154 3155 3155 3155 3155 3155 3155 3155 3155 3154 3154 3153 3152 3152 3151 3151 3150 3150 3150 3149 3149 3149 3149 3150 3150 3151 3152 3151 3151 3151 3152 3153 3155 3156 3156 3156 3157 3157 3158 3157 3157 3157 3158 3158 3158 3159 3159 3157 3156 3156 3158 3157 3156 3157 3158 3158 3159 3159 3158 3158 3157 3157 3157 3157 3157 3159 3161 3161 3161 3161 3161 3161 3161 3162 3162 3162 3161 3160 3160 3159 3158 3157 3156 3154 3151 3149 3148 3147
3152 3153 3153 3153 3153 3153 3153 3153 3153 3153 3152 3152 3152 3151 3151 3151 3150 3150 3149 3149 3149 3148 3148 3149 3149 3150 3151 3152 3151 3151 3151 3153 3155 3155 3155 3156 3156 3157 3157 3157 3156 3156 3156 3157 3158 3158 3156 3155 3155 3156 3157 3155 3155 3157 3158 3158 3158 3157 3157 3157 3156 3156 3156 3156 3157 3158 3160 3161 3160 3160 3161 3161 3160 3161 3160 3160 3160 3159 3159 3157 3156 3155 3153 3150 3147 3145 3143 3143
3150 3150 3151 3151 3152 3151 3152 3152 3152 3152 3151 3151 3151 3151 3151 3151 3150 3149 3149 3149 3148 3148 3148 3148 3149 3150 3150 3151 3150 3151 3152 3154 3154 3154 3154 3155 3156 3156 3156 3157 3156 3154 3154 3156 3157 3156 3154 3153 3153 3155 3156 3155 3155 3157 3157 3157 3156 3156 3156 3156 3156 3154 3154 3155 3156 3156 3158 3159 3159 3160 3160 3161 3160 3160 3159 3159 3159 3158 3157 3156 3154 3153 3150 3147 3144 3142 3141 3140
3148 3148 3149 3149 3150 3150 3150 3150 3150 3150 3150 3150 3151 3150 3150 3150 3149 3149 3149 3148 3147 3147 3147 3148 3149 3150 3150 3150 3150 3151 3153 3153 3153 3154 3154 3154 3155 3155 3155 3156 3155 3153 3154 3156 3156 3154 3153 3153 3153 3155 3156 3155 3156 3156 3156 3157 3155 3155 3156 3156 3155 3153 3152 3153 3154 3154 3156 3157 3158 3159 3159 3160 3160 3159 3158 3158 3157 3156 3156 3154 3153 3151 3148 3145 3141 3139 3138 3138
3146 3147 3146 3146 3147 3148 3148 3148 3149 3149 3149 3149 3150 3150 3149 3149 3149 3149 3149 3149 3147 3146 3147 3147 3148 3149 3149 3149 3150 3151 3152 3153 3153 3153 3153 3154 3154 3154 3154 3154 3154 3153 3154 3154 3153 3152 3152 3153 3153 3154 3155 3155 3155 3155 3155 3155 3153 3153 3155 3155 3154 3153 3152 3152 3153 3154 3155 3156 3157 3158 3158 3159 3158 3158 3157 3157 3156 3155 3155 3153 3152 3149 3147 3143 3139 3137 3136 3136
3144 3145 3144 3144 3144 3146 3146 3146 3147 3147 3148 3148 3149 3149 3149 3148 3149 3149 3149 3149 3147 3145 3146 3147 3147 3148 3149 3150 3150 3151 3152 3152 3153 3153 3153 3153 3153 3153 3153 3153 3153 3153 3154 3154 3152 3150 3150 3152 3153 3153 3153 3154 3154 3154 3154 3154 3153 3153 3154 3154 3153 3153 3152 3152 3153 3154 3155 3155 3156 3157 3157 3158 3157 3156 3156 3156 3155 3154 3154 3152 3150 3148 3146 3143 3139 3136 3135 3135
3143 3143 3143 3142 3142 3143 3144 3144 3145 3145 3146 3147 3148 3148 3148 3148 3149 3149 3149 3148 3145 3144 3146 3146 3147 3147 3148 3149 3150 3150 3151 3151 3152 3152 3152 3152 3153 3153 3153 3153 3152 3152 3152 3153 3151 3150 3150 3151 3152 3152 3152 3152 3152 3153 3153 3153 3153 3153 3153 3153 3152 3152 3152 3152 3153 3154 3154 3154 3154 3154 3155 3156 3155 3155 3155 3155 3154 3153 3153 3151 3149 3148 3146 3143 3140 3137 3136 3136
3142 3141 3141 3140 3140 3140 3141 3142 3142 3143 3144 3145 3146 3146 3147 3148 3148 3149 3150 3147 3144 3144 3145 3145 3146 3147 3147 3148 3149 3150 3151 3151 3151 3151 3151 3152 3152 3152 3152 3152 3151 3150 3151 3151 3150 3149 3149 3150 3150 3150 3151 3151 3151 3151 3151 3152 3153 3152 3152 3152 3151 3152 3152 3153 3153 3152 3153 3152 3151 3152 3153 3153 3154 3154 3154 3154 3153 3153 3152 3151 3149 3148 3147 3145 3142 3140 3139 3139
3141 3140 3139 3139 3138 3138 3139 3139 3140 3141 3142 3143 3144 3146 3147 3148 3148 3149 3148 3145 3143 3144 3144 3144 3146 3146 3147 3147 3147 3148 3150 3150 3151 3150 3150 3151 3151 3151 3151 3151 3150 3150 3149 3149 3148 3148 3148 3149 3148 3148 3149 3150 3150 3149 3150 3151 3152 3152 3152 3151 3150 3151 3151 3152 3151 3151 3152 3151 3149 3150 3151 3152 3153 3153 3153 3153 3152 3152 3151 3150 3149 3148 3147 3146 3144 3143 3142 3142
3140 3138 3137 3137 3137 3137 3136 3137 3138 3139 3140 3141 3143 3144 3145 3147 3147 3146 3144 3143 3143 3143 3143 3144 3144 3144 3145 3146 3146 3146 3148 3149 3149 3149 3149 3150 3150 3149 3149 3149 3149 3149 3148 3148 3148 3147 3146 3147 3146 3146 3148 3149 3149 3148 3149 3149 3150 3151 3151 3151 3151 3151 3152 3152 3152 3151 3151 3150 3149 3150 3151 3151 3152 3152 3153 3153 3152 3151 3151 3149 3149 3148 3148 3147 3146 3145 3145 3145
3139 3138 3136 3135 3135 3135 3135 3135 3136 3136 3138 3139 3141 3143 3144 3146 3144 3141 3141 3142 3143 3143 3143 3144 3143 3143 3144 3144 3144 3144 3145 3147 3147 3147 3148 3148 3148 3147 3147 3147 3148 3148 3147 3147 3147 3147 3145 3145 3144 3145 3148 3148 3148 3148 3148 3148 3149 3150 3150 3151 3150 3151 3153 3154 3153 3151 3150 3149 3150 3151 3150 3151 3152 3152 3152 3152 3151 3151 3150 3150 3149 3148 3148 3148 3148 3147 3147 3147
3138 3137 3136 3134 3133 3133 3133 3133 3134 3134 3136 3137 3139 3141 3142 3142 3141 3139 3140 3142 3142 3142 3144 3145 3145 3144 3143 3142 3142 3142 3143 3144 3145 3145 3146 3146 3146 3145 3144 3145 3145 3146 3146 3146 3147 3147 3145 3144 3144 3146 3147 3148 3148 3148 3148 3148 3149 3149 3150 3150 3149 3149 3151 3152 3150 3149 3149 3149 3150 3150 3150 3151 3152 3152 3152 3151 3151 3150 3150 3150 3149 3148 3148 3148 3148 3148 3148 3148
3137 3136 3134 3133 3132 3131 3131 3132 3132 3133 3134 3136 3138 3139 3139 3138 3138 3139 3140 3141 3142 3142 3141 3142 3142 3142 3142 3141 3141 3141 3141 3141 3143 3144 3144 3144 3143 3142 3142 3142 3142 3143 3144 3145 3146 3146 3145 3145 3145 3146 3147 3147 3148 3148 3148 3148 3148 3149 3149 3149 3149 3148 3148 3148 3147 3147 3147 3148 3151 3151 3151 3152 3152 3152 3152 3151 3151 3150 3150 3149 3149 3149 3148 3148 3148 3148 3148 3148
3136 3135 3133 3132 3131 3130 3130 3130 3130 3131 3133 3134 3136 3136 3135 3136 3138 3138 3139 3141 3142 3141 3139 3138 3138 3140 3140 3139 3139 3140 3140 3140 3141 3142 3142 3142 3141 3140 3140 3140 3140 3140 3141 3143 3144 3145 3144 3145 3145 3146 3147 3147 3147 3147 3148 3148 3148 3148 3148 3148 3148 3147 3147 3146 3146 3146 3146 3149 3153 3153 3152 3153 3153 3152 3151 3151 3151 3150 3149 3149 3149 3149 3149 3148 3148 3148 3148 3148
3136 3135 3133 3131 3130 3129 3129 3129 3129 3130 3131 3133 3133 3133 3134 3135 3137 3137 3138 3140 3141 3141 3140 3139 3139 3140 3141 3139 3139 3139 3139 3139 3140 3139 3139 3140 3139 3139 3138 3138 3139 3138 3138 3141 3143 3143 3143 3144 3145 3146 3146 3146 3146 3146 3147 3147 3147 3147 3147 3147 3147 3147 3146 3145 3145 3145 3147 3151 3154 3154 3153 3153 3153 3152 3151 3151 3151 3150 3150 3149 3149 3149 3149 3149 3149 3149 3149 3149
3135 3134 3134 3132 3131 3130 3129 3129 3129 3129 3130 3131 3131 3131 3132 3134 3135 3137 3138 3139 3140 3140 3140 3140 3139 3139 3139 3139 3139 3139 3138 3138 3139 3137 3137 3139 3138 3137 3137 3137 3138 3138 3138 3141 3142 3141 3142 3143 3144 3144 3145 3145 3146 3146 3146 3146 3146 3146 3146 3147 3147 3146 3146 3145 3145 3145 3148 3153 3155 3154 3153 3152 3151 3151 3151 3150 3151 3150 3150 3149 3149 3149 3148 3148 3149 3149 3149 3149
3134 3133 3133 3133 3131 3130 3129 3128 3128 3129 3129 3130 3130 3130 3131 3132 3133 3136 3137 3138 3138 3138 3139 3139 3138 3137 3137 3138 3138 3139 3138 3139 3139 3138 3137 3137 3137 3136 3136 3136 3136 3136 3138 3140 3140 3139 3140 3142 3143 3144 3144 3145 3145 3145 3146 3146 3146 3146 3146 3146 3146 3146 3145 3144 3145 3145 3147 3151 3154 3154 3154 3151 3150 3150 3150 3150 3150 3150 3150 3150 3149 3149 3148 3148 3148 3149 3149 3149
3133 3132 3132 3132 3130 3129 3129 3128 3128 3129 3129 3129 3129 3130 3131 3131 3133 3135 3137 3137 3136 3137 3138 3138 3137 3136 3135 3136 3137 3138 3138 3137 3138 3138 3137 3136 3135 3135 3135 3135 3135 3136 3137 3138 3138 3138 3139 3140 3142 3143 3144 3145 3145 3145 3145 3145 3145 3145 3146 3146 3146 3146 3146 3145 3145 3144 3145 3148 3151 3153 3153 3150 3148 3149 3150 3150 3150 3150 3150 3150 3150 3149 3149 3149 3148 3149 3149 3148
3131 3131 3131 3131 3129 3128 3128 3127 3128 3128 3128 3129 3129 3130 3131 3131 3132 3133 3135 3136 3135 3136 3136 3137 3136 3135 3133 3134 3135 3136 3136 3136 3136 3137 3136 3135 3135 3133 3133 3134 3135 3135 3136 3137 3136 3137 3138 3140 3142 3143 3143 3144 3145 3145 3145 3145 3145 3144 3145 3146 3145 3146 3146 3145 3145 3145 3145 3146 3148 3150 3150 3148 3148 3149 3149 3149 3149 3149 3150 3150 3150 3149 3149 3149 3149 3148 3148 3148
3130 3130 3130 3130 3130 3129 3128 3127 3127 3127 3128 3128 3129 3129 3130 3131 3131 3132 3134 3134 3134 3134 3134 3134 3135 3134 3133 3133 3134 3135 3135 3135 3134 3135 3134 3134 3133 3132 3132 3133 3134 3134 3134 3135 3135 3136 3137 3140 3141 3142 3143 3143 3144 3144 3144 3145 3145 3144 3144 3145 3145 3145 3145 3145 3145 3145 3145 3146 3146 3147 3147 3148 3149 3149 3149 3149 3149 3149 3149 3150 3150 3150 3149 3149 3149 3148 3148 3148
3129 3129 3129 3129 3129 3129 3129 3128 3127 3128 3128 3128 3128 3128 3129 3129 3130 3131 3132 3133 3134 3134 3133 3132 3132 3132 3132 3132 3133 3134 3135 3134 3133 3133 3133 3132 3131 3132 3132 3132 3132 3132 3132 3133 3135 3135 3137 3138 3139 3140 3141 3142 3143 3143 3144 3145 3145 3145 3144 3144 3144 3145 3144 3144 3145 3144 3144 3145 3145 3146 3148 3148 3149 3149 3149 3149 3149 3149 3149 3150 3150 3149 3149 3149 3149 3149 3148 3148
3128 3128 3127 3127 3128 3128 3128 3128 3128 3128 3128 3128 3128 3127 3128 3128 3129 3129 3130 3131 3133 3133 3133 3132 3132 3131 3131 3131 3131 3133 3134 3134 3132 3132 3133 3132 3131 3132 3133 3133 3133 3132 3131 3132 3133 3135 3136 3137 3138 3139 3141 3142 3142 3142 3143 3144 3144 3144 3144 3144 3144 3144 3143 3143 3144 3144 3144 3144 3144 3145 3147 3148 3148 3149 3149 3149 3149 3148 3149 3149 3149 3149 3149 3149 3149 3149 3149 3148
3126 3126 3125 3125 3126 3127 3127 3127 3127 3127 3127 3127 3126 3126 3127 3127 3128 3129 3129 3130 3131 3132 3131 3131 3131 3131 3131 3131 3130 3131 3132 3133 3132 3131 3132 3132 3131 3132 3132 3133 3132 3131 3131 3131 3131 3132 3134 3135 3136 3138 3140 3142 3142 3142 3142 3143 3144 3144 3144 3145 3144 3143 3143 3142 3143 3144 3144 3144 3144 3144 3145 3146 3147 3148 3148 3148 3148 3148 3148 3149 3149 3149 3149 3149 3149 3149 3148 3148
3124 3124 3124 3124 3125 3125 3125 3125 3125 3125 3125 3126 3125 3124 3125 3125 3126 3127 3128 3127 3128 3129 3130 3130 3130 3130 3130 3130 3130 3129 3130 3130 3130 3130 3130 3131 3131 3131 3130 3130 3130 3130 3130 3130 3130 3130 3132 3133 3135 3136 3138 3139 3140 3140 3141 3142 3143 3143 3143 3144 3144 3143 3143 3142 3142 3142 3143 3144 3144 3144 3144 3145 3146 3147 3147 3147 3147 3148 3148 3148 3149 3149 3149 3149 3148 3148 3148 3148
3122 3121 3122 3123 3123 3123 3123 3123 3123 3124 3125 3125 3124 3124 3124 3124 3124 3125 3125 3125 3125 3126 3127 3128 3128 3128 3128 3128 3128 3128 3127 3128 3128 3128 3127 3128 3128 3128 3128 3128 3129 3130 3129 3129 3129 3130 3131 3132 3133 3134 3136 3137 3138 3140 3140 3141 3142 3142 3142 3143 3143 3142 3142 3141 3141 3141 3142 3142 3143 3143 3144 3144 3144 3145 3146 3146 3147 3147 3148 3148 3148 3148 3148 3148 3148 3147 3147 3147
3120 3120 3121 3122 3122 3121 3121 3122 3122 3123 3124 3125 3124 3124 3123 3124 3124 3124 3124 3124 3125 3124 3125 3126 3127 3127 3126 3126 3126 3126 3126 3126 3126 3125 3125 3126 3126 3126 3126 3127 3128 3129 3129 3129 3129 3129 3130 3131 3132 3133 3134 3136 3137 3139 3140 3140 3141 3141 3141 3142 3142 3141 3141 3140 3140 3140 3140 3141 3142 3143 3143 3143 3144 3145 3146 3146 3147 3147 3147 3147 3147 3147 3146 3146 3146 3146 3146 3146
3118 3119 3120 3121 3121 3120 3120 3121 3121 3122 3123 3123 3123 3124 3124 3124 3124 3124 3124 3124 3124 3125 3125 3124 3124 3125 3124 3124 3124 3124 3123 3123 3123 3123 3123 3124 3124 3124 3125 3126 3127 3127 3127 3128 3128 3128 3129 3130 3131 3133 3134 3135 3136 3137 3138 3139 3140 3140 3140 3141 3141 3140 3140 3139 3139 3139 3140 3140 3140 3141 3141 3142 3143 3144 3145 3146 3146 3146 3146 3146 3146 3146 3145 3145 3145 3145 3145 3145
3116 3117 3118 3118 3119 3119 3119 3119 3120 3120 3121 3122 3122 3123 3123 3122 3122 3121 3121 3122 3122 3122 3122 3120 3120 3121 3121 3121 3122 3122 3121 3121 3121 3122 3122 3123 3123 3123 3123 3124 3125 3126 3127 3127 3127 3127 3128 3129 3130 3132 3133 3134 3134 3135 3136 3138 3138 3138 3138 3138 3138 3138 3138 3138 3138 3138 3138 3139 3139 3139 3139 3139 3141 3142 3144 3145 3145 3145 3145 3145 3145 3145 3144 3144 3143 3143 3143 3143
3114 3114 3115 3115 3116 3117 3117 3117 3118 3118 3119 3121 3120 3119 3118 3118 3119 3118 3118 3120 3120 3119 3118 3118 3118 3119 3120 3119 3119 3119 3119 3120 3120 3120 3121 3121 3121 3122 3122 3122 3124 3126 3126 3126 3126 3126 3127 3128 3129 3130 3132 3132 3133 3134 3135 3136 3136 3136 3137 3137 3137 3137 3137 3137 3136 3136 3137 3137 3137 3137 3137 3138 3139 3141 3142 3143 3143 3144 3144 3144 3144 3144 3143 3143 3142 3142 3142 3142
3111 3111 3112 3112 3113 3114 3114 3115 3116 3116 3117 3118 3116 3115 3115 3115 3116 3116 3116 3118 3118 3117 3117 3117 3118 3118 3118 3116 3116 3116 3117 3117 3118 3118 3119 3119 3120 3120 3121 3121 3123 3124 3125 3125 3125 3126 3126 3127 3127 3129 3130 3131 3132 3133 3134 3134 3135 3135 3136 3136 3137 3137 3136 3135 3135 3135 3135 3136 3136 3136 3136 3136 3137 3139 3140 3141 3142 3142 3142 3142 3142 3142 3142 3142 3141 3141 3141 3141